• In Netherlands
  • List of Countries
  • For 7 days
  • Water Temperature
  • Satellite Maps
  • Weather Map
  • Weather Widgets
  • user-avatar
    Login

    Hourly Weather Kranevo

    Today, 21 September, Thursday

    Time Temperature Precipitation Wind Pressure Humidity
    00:00 +22°C° 0 mm 5 mps 749 mmHg 84%
    01:00 +21°C° 0 mm 5 mps 750 mmHg 85%
    02:00 +20°C° 0 mm 6 mps 750 mmHg 67%
    03:00 +18°C° 0 mm 7 mps 750 mmHg 65%
    04:00 +18°C° 0 mm 7 mps 751 mmHg 62%
    05:00 +17°C° 0 mm 7 mps 751 mmHg 60%
    06:00 +18°C° 0 mm 7 mps 751 mmHg 58%
    07:00 +18°C° 0 mm 7 mps 751 mmHg 56%
    08:00 +18°C° 0 mm 7 mps 752 mmHg 54%
    09:00 +20°C° 0.1 mm 7 mps 752 mmHg 50%
    10:00 +20°C° 0.1 mm 7 mps 752 mmHg 47%
    11:00 +21°C° 0.1 mm 7 mps 752 mmHg 44%
    12:00 +23°C° 0 mm 6 mps 752 mmHg 41%
    13:00 +25°C° 0 mm 5 mps 752 mmHg 37%
    14:00 +26°C° 0 mm 4 mps 752 mmHg 34%
    15:00 +26°C° 0 mm 4 mps 752 mmHg 34%
    16:00 +26°C° 0 mm 4 mps 752 mmHg 34%
    17:00 +25°C° 0 mm 4 mps 752 mmHg 35%
    18:00 +23°C° 0 mm 4 mps 752 mmHg 38%
    19:00 +21°C° 0 mm 5 mps 753 mmHg 41%
    20:00 +19°C° 0 mm 6 mps 753 mmHg 44%
    21:00 +17°C° 0 mm 6 mps 753 mmHg 47%
    22:00 +17°C° 0 mm 7 mps 754 mmHg 50%
    23:00 +16°C° 0 mm 8 mps 754 mmHg 54%

    Tomorrow, 22 September, Friday

    Time Temperature Precipitation Wind Pressure Humidity
    00:00 +15°C° 0 mm 8 mps 754 mmHg 56%
    01:00 +15°C° 0 mm 8 mps 754 mmHg 59%
    02:00 +13°C° 0 mm 8 mps 754 mmHg 62%
    03:00 +13°C° 0 mm 8 mps 754 mmHg 64%
    04:00 +12°C° 0 mm 8 mps 755 mmHg 66%
    05:00 +12°C° 0 mm 8 mps 755 mmHg 68%
    06:00 +13°C° 0 mm 8 mps 755 mmHg 65%
    07:00 +13°C° 0 mm 8 mps 755 mmHg 62%
    08:00 +15°C° 0 mm 9 mps 755 mmHg 59%
    09:00 +16°C° 0 mm 8 mps 755 mmHg 53%
    10:00 +18°C° 0 mm 8 mps 755 mmHg 48%
    11:00 +21°C° 0 mm 7 mps 755 mmHg 42%
    12:00 +21°C° 0 mm 7 mps 755 mmHg 40%
    13:00 +22°C° 0 mm 7 mps 755 mmHg 39%
    14:00 +22°C° 0 mm 7 mps 755 mmHg 38%
    15:00 +22°C° 0 mm 7 mps 755 mmHg 40%
    16:00 +21°C° 0 mm 7 mps 755 mmHg 43%
    17:00 +20°C° 0 mm 7 mps 755 mmHg 45%
    18:00 +18°C° 0 mm 7 mps 755 mmHg 50%
    19:00 +17°C° 0 mm 7 mps 756 mmHg 56%
    20:00 +15°C° 0 mm 6 mps 756 mmHg 61%
    21:00 +15°C° 0 mm 6 mps 756 mmHg 63%
    22:00 +15°C° 0 mm 7 mps 757 mmHg 64%
    23:00 +14°C° 0 mm 7 mps 757 mmHg 66%

    Day after tomorrow, 23 September, Saturday

    Time Temperature Precipitation Wind Pressure Humidity
    00:00 +14°C° 0 mm 6 mps 757 mmHg 68%
    01:00 +13°C° 0 mm 6 mps 757 mmHg 70%
    02:00 +13°C° 0 mm 6 mps 757 mmHg 72%
    03:00 +13°C° 0 mm 5 mps 757 mmHg 74%
    04:00 +12°C° 0 mm 5 mps 758 mmHg 75%
    05:00 +12°C° 0 mm 5 mps 758 mmHg 76%
    06:00 +13°C° 0 mm 5 mps 758 mmHg 72%
    07:00 +14°C° 0 mm 5 mps 758 mmHg 69%
    08:00 +15°C° 0 mm 6 mps 758 mmHg 65%
    09:00 +17°C° 0 mm 5 mps 758 mmHg 58%
    10:00 +20°C° 0 mm 5 mps 758 mmHg 51%
    11:00 +22°C° 0 mm 5 mps 758 mmHg 44%
    12:00 +22°C° 0 mm 5 mps 758 mmHg 43%
    13:00 +22°C° 0 mm 5 mps 758 mmHg 42%
    14:00 +23°C° 0 mm 5 mps 758 mmHg 41%
    15:00 +22°C° 0 mm 4 mps 758 mmHg 41%
    16:00 +22°C° 0 mm 4 mps 758 mmHg 41%
    17:00 +22°C° 0 mm 4 mps 758 mmHg 42%
    18:00 +21°C° 0 mm 4 mps 758 mmHg 45%
    19:00 +20°C° 0 mm 3 mps 758 mmHg 48%
    20:00 +19°C° 0 mm 3 mps 759 mmHg 50%
    21:00 +18°C° 0 mm 3 mps 759 mmHg 52%
    22:00 +18°C° 0 mm 3 mps 759 mmHg 54%
    23:00 +17°C° 0 mm 3 mps 759 mmHg 56%

    24 September, Sunday

    Time Temperature Precipitation Wind Pressure Humidity
    00:00 +16°C° 0 mm 3 mps 759 mmHg 56%
    01:00 +16°C° 0 mm 3 mps 759 mmHg 56%
    02:00 +16°C° 0 mm 3 mps 759 mmHg 57%
    03:00 +14°C° 0 mm 3 mps 759 mmHg 56%
    04:00 +15°C° 0 mm 2 mps 759 mmHg 56%
    05:00 +15°C° 0 mm 2 mps 759 mmHg 56%
    06:00 +16°C° 0 mm 2 mps 759 mmHg 51%
    07:00 +18°C° 0 mm 2 mps 759 mmHg 47%
    08:00 +20°C° 0 mm 1 mps 760 mmHg 42%
    09:00 +21°C° 0 mm 2 mps 760 mmHg 39%
    10:00 +24°C° 0 mm 2 mps 760 mmHg 35%
    11:00 +25°C° 0 mm 2 mps 760 mmHg 31%
    12:00 +26°C° 0 mm 3 mps 760 mmHg 31%
    13:00 +26°C° 0 mm 3 mps 759 mmHg 31%
    14:00 +27°C° 0 mm 3 mps 759 mmHg 31%
    15:00 +26°C° 0 mm 4 mps 759 mmHg 37%
    16:00 +25°C° 0 mm 4 mps 759 mmHg 42%
    17:00 +23°C° 0 mm 4 mps 759 mmHg 47%
    18:00 +22°C° 0 mm 4 mps 759 mmHg 54%
    19:00 +20°C° 0 mm 4 mps 760 mmHg 61%
    20:00 +19°C° 0 mm 4 mps 760 mmHg 68%
    21:00 +19°C° 0 mm 3 mps 760 mmHg 71%
    22:00 +18°C° 0 mm 3 mps 760 mmHg 73%
    23:00 +18°C° 0 mm 3 mps 760 mmHg 76%

    25 September, Monday

    Time Temperature Precipitation Wind Pressure Humidity
    00:00 +18°C° 0 mm 2 mps 760 mmHg 77%
    01:00 +17°C° 0 mm 2 mps 760 mmHg 79%
    02:00 +17°C° 0 mm 2 mps 759 mmHg 80%
    03:00 +17°C° 0 mm 2 mps 759 mmHg 81%
    04:00 +17°C° 0 mm 3 mps 759 mmHg 81%
    05:00 +17°C° 0 mm 3 mps 759 mmHg 82%
    06:00 +18°C° 0.1 mm 4 mps 760 mmHg 76%
    07:00 +19°C° 0.1 mm 4 mps 760 mmHg 70%
    08:00 +20°C° 0.1 mm 5 mps 760 mmHg 65%
    09:00 +22°C° 0.1 mm 5 mps 760 mmHg 59%
    10:00 +23°C° 0.1 mm 5 mps 760 mmHg 53%
    11:00 +26°C° 0.1 mm 6 mps 760 mmHg 48%
    12:00 +26°C° 0 mm 6 mps 760 mmHg 47%
    13:00 +26°C° 0 mm 6 mps 759 mmHg 46%
    14:00 +27°C° 0 mm 6 mps 759 mmHg 46%
    15:00 +26°C° 0 mm 6 mps 759 mmHg 49%
    16:00 +24°C° 0 mm 6 mps 759 mmHg 53%
    17:00 +23°C° 0 mm 6 mps 759 mmHg 56%
    18:00 +22°C° 0 mm 6 mps 759 mmHg 62%
    19:00 +21°C° 0 mm 5 mps 759 mmHg 68%
    20:00 +19°C° 0 mm 5 mps 759 mmHg 75%
    21:00 +19°C° 0 mm 5 mps 759 mmHg 76%
    22:00 +18°C° 0 mm 4 mps 759 mmHg 78%
    23:00 +18°C° 0 mm 4 mps 758 mmHg 80%

    26 September, Tuesday

    Time Temperature Precipitation Wind Pressure Humidity
    00:00 +17°C° 0 mm 4 mps 758 mmHg 81%
    01:00 +17°C° 0 mm 4 mps 758 mmHg 82%
    02:00 +17°C° 0 mm 4 mps 758 mmHg 83%
    03:00 +15°C° 0 mm 5 mps 758 mmHg 83%
    04:00 +15°C° 0 mm 5 mps 758 mmHg 83%
    05:00 +15°C° 0 mm 5 mps 758 mmHg 83%
    06:00 +16°C° 0 mm 6 mps 758 mmHg 78%
    07:00 +17°C° 0 mm 6 mps 758 mmHg 72%
    08:00 +19°C° 0 mm 6 mps 758 mmHg 66%
    09:00 +21°C° 0 mm 6 mps 758 mmHg 62%
    10:00 +22°C° 0 mm 6 mps 758 mmHg 58%
    11:00 +24°C° 0 mm 7 mps 758 mmHg 54%
    12:00 +24°C° 0.1 mm 7 mps 758 mmHg 55%
    13:00 +23°C° 0.1 mm 7 mps 758 mmHg 56%
    14:00 +23°C° 0.1 mm 8 mps 758 mmHg 57%
    15:00 +22°C° 0 mm 8 mps 758 mmHg 58%
    16:00 +22°C° 0 mm 8 mps 758 mmHg 58%
    17:00 +21°C° 0 mm 8 mps 758 mmHg 59%
    18:00 +20°C° 0 mm 7 mps 758 mmHg 61%
    19:00 +18°C° 0 mm 7 mps 759 mmHg 63%
    20:00 +17°C° 0 mm 6 mps 759 mmHg 65%
    21:00 +17°C° 0 mm 6 mps 759 mmHg 62%
    22:00 +17°C° 0 mm 6 mps 759 mmHg 59%
    23:00 +16°C° 0 mm 6 mps 759 mmHg 56%
    Show more